Overview Statistics Trail Chart Weather Telemetry Raw packets
 

This is the latest recevied weather packets stored in our database for station/object WA1TYB-13. If no packets are shown the sender has not sent any weather packets the latest 10 day(s).

<< 21 22 23 24 25 26 27 >>
Time Temp. Humidity Pressure Rain* Wind** Luminosity Snow
1788469074 25° C 15% 1010.8 hPa 0 mm - 255 W/m² -
1788468773 25° C 15% 1010.7 hPa 0 mm - 761 W/m² -
1788468469 24.44° C 15% 1010.6 hPa 0 mm - 698 W/m² -
1788468165 24.44° C 14% 1010.6 hPa 0 mm - 251 W/m² -
1788467861 25° C 14% 1010.5 hPa 0 mm - 644 W/m² -
1788467557 24.44° C 14% 1010.8 hPa 0 mm - 634 W/m² -
1788467255 24.44° C 15% 1010.8 hPa 0 mm - 715 W/m² -
1788466952 24.44° C 15% 1011 hPa 0 mm - 756 W/m² -
1788466651 23.89° C 15% 1010.8 hPa 0 mm - 742 W/m² -
1788466346 23.33° C 17% 1011.1 hPa 0 mm - 226 W/m² -
1788466045 23.89° C 16% 1011 hPa 0 mm - 252 W/m² -
1788465741 23.33° C 17% 1011.1 hPa 0 mm - 675 W/m² -
1788465436 23.33° C 17% 1011.1 hPa 0 mm - 699 W/m² -
1788465132 23.89° C 16% 1011.1 hPa 0 mm - 302 W/m² -
1788464832 23.33° C 17% 1010.8 hPa 0 mm - 684 W/m² -
1788464528 23.89° C 15% 1011.2 hPa 0 mm - 184 W/m² -
1788464228 23.89° C 16% 1011.1 hPa 0 mm - 341 W/m² -
1788463923 22.78° C 17% 1011.2 hPa 0 mm - 739 W/m² -
1788463619 22.78° C 18% 1011.4 hPa 0 mm - 647 W/m² -
1788463314 23.33° C 18% 1011.5 hPa 0 mm - 822 W/m² -
1788463011 22.22° C 19% 1011.4 hPa 0 mm - 435 W/m² -
1788462710 22.22° C 18% 1011.6 hPa 0 mm - 514 W/m² -
1788462405 22.78° C 19% 1011.6 hPa 0 mm - 251 W/m² -
1788462099 22.22° C 18% 1011.3 hPa 0 mm - 498 W/m² -
1788461794 22.78° C 18% 1011.5 hPa 0 mm - 170 W/m² -

* Rain latest hour (hover to see other rain measurements)
** Current wind speed in m/s (hover to see current wind gust speed)